RH
95 90 89 88 88 88 90 91 92 92 92 92 90 86 85 89 79 79 71 81 78 98 98 99 91 84 81 54 51 26 27 34 37 53 64 61 55 54 64 54 53 56 49 40 37 36 34
89 90 90 89 90 90 91 92 93 94 93 91 87 77 50 46 55 61 68 66 92 95 92 92 91 77 77 57 34 24 18 22 30 42 51 49 53 40 46 45 48 44 44 40 37 34 32
92 91 90 90 89 92 92 94 95 95 91 89 83 63 56 31 25 32 53 82 92 95 81 76 72 79 41 51 33 22 18 18 36 38 44 49 41 47 43 47 35 38 48 41 39 38 37
92 91 91 90 91 92 94 95 95 94 91 78 54 51 50 36 18 14 41 78 76 77 72 70 71 67 48 27 30 17 15 14 23 37 40 52 53 57 56 49 54 58 54 67 39 36 34
92 92 92 92 92 93 94 94 94 89 76 69 45 19 20 15 15 11 40 49 39 54 62 69 61 46 30 22 28 18 16 15 17 32 40 41 61 74 74 84 83 62 82 66 53 36 33
92 92 92 93 93 95 95 95 90 82 59 36 22 11 16 14 20 12 35 37 33 39 43 45 21 29 21 26 33 18 18 15 13 18 39 60 71 78 79 92 88 81 79 82 74 49 58
93 92 92 94 95 96 94 94 82 83 56 21 12 14 12 15 25 18 26 45 39 39 41 34 20 23 22 20 17 20 19 16 14 16 21 20 63 74 62 98 100 100 98 95 84 60 75
91 94 94 95 96 96 94 89 73 76 51 18 10 12 11 14 27 38 27 49 64 60 54 36 23 23 22 18 21 22 17 25 22 25 22 24 27 24 28 32 39 45 65 77 61 54 57
84 95 95 97 96 96 93 90 72 54 21 11 11 12 9 15 29 34 40 58 71 71 56 44 25 22 24 18 23 24 18 26 26 28 30 35 25 22 24 29 34 50 56 49 61 40 38
84 88 96 95 96 92 82 86 52 39 15 10 12 12 9 12 31 22 36 50 77 72 59 41 25 23 19 21 27 17 16 28 30 35 29 29 22 24 27 37 63 70 34 34 37 55 83
80 90 85 91 78 87 90 69 47 23 12 12 15 10 16 27 32 34 44 59 80 74 57 31 23 17 17 22 21 24 16 21 35 32 28 32 26 28 42 48 25 39 29 35 35 44 49
79 91 71 90 67 82 75 51 28 30 16 9 15 19 18 23 32 44 49 80 78 80 68 34 23 24 21 23 23 22 19 19 25 30 26 32 22 23 31 30 24 22 36 30 30 38 64
89 83 79 80 69 37 71 58 33 24 12 8 20 25 30 32 40 41 53 79 65 46 24 35 32 26 22 26 24 24 22 28 58 67 61 37 27 21 26 35 26 31 46 68 63 63 70
89 75 81 81 50 32 41 81 39 15 8 6 22 28 20 26 26 42 48 49 52 32 43 31 32 25 26 25 26 26 25 32 46 55 62 65 61 35 32 36 43 36 41 76 96 85 68
83 79 76 72 42 41 37 68 24 11 6 7 27 28 24 13 21 36 51 50 53 47 41 41 31 28 29 28 28 29 28 33 52 56 85 81 64 41 32 25 28 50 53 61 85 66 76
81 80 85 59 50 34 47 74 21 6 7 14 34 30 31 22 25 36 34 45 48 40 39 35 37 31 42 37 43 41 35 46 56 50 48 67 81 42 33 34 39 56 77 81 70 94 79
82 80 83 62 69 24 72 83 28 6 9 30 34 37 25 23 24 35 44 46 42 35 38 44 46 47 42 60 50 47 38 67 52 51 45 48 71 60 39 58 63 68 87 82 85 82 91
80 92 79 74 65 37 84 82 52 10 10 32 34 37 27 28 33 37 52 47 48 40 35 38 39 47 57 51 54 49 76 64 43 45 66 58 97 92 85 58 53 48 73 82 100 89 87
82 96 80 74 59 61 86 79 72 20 25 48 46 40 29 29 40 47 43 46 39 40 44 44 51 49 44 47 71 53 54 45 45 56 77 95 82 92 75 92 50 60 56 65 76 94 96
95 94 87 74 73 85 87 80 62 17 30 45 50 55 44 40 38 42 52 46 39 37 41 42 44 48 53 52 52 72 49 52 49 39 38 63 95 95 96 93 87 86 63 56 70 98 99
96 89 89 80 77 88 87 75 71 19 38 50 69 66 61 55 49 54 58 58 44 44 40 42 57 62 72 86 74 57 53 64 48 38 45 78 99 85 84 76 71 74 69 69 81 80 99
97 91 92 87 81 91 83 72 72 22 47 55 85 79 66 66 44 56 56 60 49 44 50 60 78 68 52 87 80 95 85 78 72 52 55 77 96 85 95 74 68 88 75 73 74 80 85
95 93 94 91 88 78 69 87 45 23 49 55 59 43 65 59 52 71 65 49 49 41 48 55 71 70 74 64 65 77 76 71 72 75 86 88 94 98 97 76 83 100 99 83 75 84 96
89 92 96 90 82 64 78 85 42 47 52 53 53 55 92 73 59 52 48 34 38 37 65 63 52 73 57 52 62 78 87 89 82 78 70 89 98 98 99 98 100 86 76 78 90 84 83
95 97 96 87 68 64 86 75 39 56 73 71 66 70 94 88 58 47 46 48 45 56 66 52 48 51 51 70 98 98 99 97 95 80 71 84 96 100 100 99 93 85 82 94 98 90 86
97 98 93 71 70 78 87 68 49 58 52 41 64 63 82 87 84 63 64 60 81 75 68 49 49 53 59 96 90 73 86 79 79 67 39 70 91 94 86 98 100 79 82 83 85 100 87
98 98 94 86 85 86 90 93 66 59 57 44 54 54 60 94 82 80 87 84 69 82 86 56 78 83 68 88 84 90 88 78 80 75 66 77 77 75 85 85 92 78 85 86 74 74 78
97 98 92 89 89 95 86 80 56 55 50 36 51 48 54 93 85 61 57 75 77 85 90 95 94 92 90 83 85 79 78 80 87 73 70 81 85 84 82 71 61 66 90 86 79 87 85
97 96 92 90 92 87 94 85 72 56 50 31 48 41 28 80 86 56 62 55 60 73 96 94 92 91 96 96 91 86 86 90 67 79 69 84 79 82 76 76 86 81 70 83 87 82 80
Wind_Speed
9 10 11 12 13 13 14 15 16 18 19 20 21 22 23 23 22 24 27 25 14 13 13 8 5 4 3 4 7 18 20 18 14 6 14 12 11 13 21 10 20 26 25 24 23 21 22
9 10 11 12 13 13 14 15 17 18 20 21 22 23 25 26 24 27 28 16 14 14 10 5 7 9 5 6 9 20 22 21 15 12 11 11 11 12 15 20 22 18 20 21 19 19 15
8 10 10 11 13 13 14 16 17 18 20 21 23 23 24 27 24 28 26 11 13 14 13 11 12 6 18 7 17 23 25 22 13 8 9 15 15 13 10 14 19 19 25 22 20 19 20
8 9 10 11 12 13 14 16 17 19 21 22 24 24 24 26 23 28 20 8 9 10 10 8 4 6 6 17 16 28 27 26 19 12 10 14 17 11 15 13 21 21 21 20 3 15 18
7 9 9 11 11 13 15 16 18 20 21 23 24 25 24 27 21 26 16 5 13 6 5 4 5 4 4 12 21 28 27 25 20 12 7 9 1 4 4 6 10 9 18 21 21 16 15
7 8 10 10 11 13 15 17 18 20 22 24 25 24 23 26 19 25 13 1 6 24 3 1 18 5 14 14 13 31 38 32 11 10 7 4 3 6 4 6 12 13 12 12 18 10 21
7 8 9 10 11 13 15 16 18 20 22 24 26 23 22 23 17 24 18 1 2 3 17 8 10 11 9 24 12 25 30 25 10 8 6 7 4 8 13 1 1 8 9 14 13 15 8
6 8 8 10 11 13 14 16 18 20 22 24 25 22 21 20 12 21 24 6 3 2 8 8 12 11 17 25 11 19 27 12 10 12 14 9 8 12 13 12 14 16 12 13 14 13 8
5 6 7 9 11 13 14 16 18 20 22 24 24 21 20 16 6 11 24 11 3 3 1 5 9 12 12 15 9 18 17 10 10 13 14 8 9 15 17 16 16 11 10 13 10 12 10
4 5 7 9 11 12 14 16 18 20 22 24 21 19 20 11 3 13 7 13 2 2 3 6 8 7 11 12 4 21 17 7 8 12 12 7 14 14 13 9 11 9 16 18 15 10 4
3 4 6 8 10 13 15 16 18 20 21 23 17 20 14 16 5 5 10 7 1 1 0 5 5 7 8 13 11 17 24 3 11 15 13 10 17 13 9 11 14 9 15 13 16 13 11
2 4 5 8 10 13 15 16 18 19 21 22 14 17 15 10 9 10 9 3 1 1 3 5 5 14 11 14 12 10 13 6 7 11 15 17 15 6 7 18 17 18 13 18 15 12 10
4 4 5 7 10 13 15 16 17 19 22 21 9 15 16 9 8 15 4 3 2 5 5 7 8 10 9 12 11 14 14 12 8 9 14 13 15 14 8 19 12 12 12 6 4 4 4
5 3 4 7 10 12 14 17 18 20 21 19 3 7 14 14 18 14 2 2 8 5 5 8 10 10 8 11 9 14 11 6 12 11 8 8 11 11 21 17 10 13 11 4 5 6 11
4 3 4 6 9 11 14 17 19 20 21 16 2 3 15 25 19 14 3 6 4 4 4 8 11 4 6 11 6 12 11 5 5 9 3 5 7 24 18 10 10 8 9 11 3 6 6
5 3 4 7 8 10 14 18 19 20 20 10 2 2 10 20 18 8 4 6 4 5 5 5 5 4 9 11 9 13 8 11 6 11 8 4 13 10 14 14 4 5 5 5 4 4 5
6 3 5 5 6 9 14 17 19 20 16 5 1 0 17 19 11 5 4 4 5 6 5 5 6 5 9 9 12 11 6 7 10 11 9 9 5 9 12 9 10 6 5 5 3 3 2
7 6 4 3 6 9 13 16 19 19 13 7 4 2 20 19 4 3 4 3 1 5 4 3 4 6 7 9 5 7 6 8 13 12 7 6 4 4 2 9 15 15 5 5 2 6 3
9 7 3 3 5 9 12 15 17 17 12 4 2 2 12 10 3 4 6 6 4 5 4 5 4 5 9 5 4 8 9 11 17 13 11 7 3 4 3 4 5 7 11 7 5 3 3
9 7 5 3 5 9 12 15 16 14 7 3 2 1 3 4 6 8 7 5 3 5 2 4 2 6 6 4 5 6 9 12 11 11 15 8 2 3 3 3 5 4 11 13 4 2 6
10 8 6 4 5 8 11 13 14 11 5 4 3 2 1 2 4 7 6 3 3 3 5 6 5 7 3 1 6 6 5 10 8 12 7 4 3 3 4 5 9 6 8 10 9 7 2
11 8 6 5 5 7 10 11 12 9 7 6 3 3 3 3 5 8 4 1 3 3 3 3 2 5 6 3 2 4 8 2 3 8 7 7 3 2 4 7 4 4 9 4 4 5 3
11 9 7 5 5 7 8 9 12 6 5 4 3 7 4 4 3 3 2 2 0 2 1 6 1 3 3 5 5 4 4 5 3 2 4 4 2 2 1 7 4 1 3 5 6 2 2
11 10 8 6 6 4 4 6 10 9 7 8 7 6 3 2 3 3 3 1 1 1 1 3 5 3 3 5 1 5 5 4 4 1 1 2 2 2 2 2 1 3 4 4 6 6 3
12 11 8 7 5 0 4 4 8 9 14 18 9 4 2 3 6 5 4 2 3 3 1 1 3 3 6 3 2 2 2 0 3 4 1 4 0 3 1 1 1 2 1 1 3 5 5
13 11 9 6 4 4 4 4 7 9 10 16 15 8 5 6 1 3 3 2 1 1 3 3 3 6 3 2 2 0 2 2 4 10 5 4 3 3 4 2 1 4 3 4 5 4 5
14 11 8 7 6 5 7 4 3 6 6 6 10 10 9 4 1 2 2 3 2 1 1 2 3 4 2 1 2 1 1 2 1 3 5 4 4 2 3 1 4 3 5 4 5 5 2
15 12 10 9 8 8 5 6 5 8 8 4 11 7 6 3 2 3 2 2 3 1 0 2 1 2 2 2 2 1 1 2 1 2 3 2 2 2 2 3 5 6 3 5 5 3 4
15 12 11 11 10 8 7 9 6 8 6 8 7 14 15 12 4 6 7 5 4 1 1 1 4 1 1 3 1 2 2 2 3 2 1 2 5 3 5 4 4 6 7 5 5 5 4
Wind_Direction
14 10 6 5 4 3 4 2 360 357 356 355 352 350 351 349 346 345 343 339 349 347 341 337 224 213 237 144 35 351 343 333 335 289 211 226 233 240 238 245 234 245 253 254 260 264 270
9 8 7 5 3 4 3 1 360 358 356 356 352 353 356 356 352 352 349 5 9 6 4 20 147 150 250 80 352 360 355 339 324 307 275 235 235 249 266 269 253 272 282 272 267 277 275
360 2 4 6 4 3 1 360 358 358 357 356 355 354 354 356 356 356 355 18 27 33 46 88 123 166 60 52 4 2 360 352 349 317 298 279 270 263 283 293 256 279 278 279 272 277 270
2 2 1 4 1 1 359 359 359 357 357 358 357 356 353 355 359 1 3 32 42 45 51 81 62 298 82 36 14 10 358 349 340 308 277 285 295 292 274 286 292 291 284 277 227 247 247
5 357 360 0 3 360 359 358 359 360 359 356 356 358 358 357 1 4 8 70 43 6 26 351 329 297 49 353 8 7 357 338 323 334 276 260 10 252 310 286 284 240 268 273 286 280 273
360 2 356 357 360 0 359 358 360 359 358 358 357 3 0 357 3 6 14 126 90 38 338 323 9 94 31 352 343 11 354 343 358 319 286 208 228 257 236 201 261 288 267 281 294 312 333
350 0 354 355 357 1 359 359 0 357 357 360 360 4 3 358 13 19 30 34 336 58 40 72 56 59 3 346 37 22 356 334 334 354 4 321 304 278 283 85 249 302 310 316 325 307 322
343 353 353 352 357 357 0 360 0 358 357 1 1 3 3 358 24 20 42 61 53 279 75 64 59 30 3 341 14 23 7 8 351 1 359 357 294 9 346 320 309 302 303 305 303 353 345
334 350 356 349 354 356 358 360 360 358 0 3 2 3 0 354 35 28 59 35 340 205 218 76 65 24 2 334 42 14 6 352 343 9 352 314 323 354 342 327 310 325 324 333 325 314 284
331 345 347 348 352 352 356 359 0 359 1 3 4 5 1 3 53 354 57 354 1 212 174 32 15 7 1 320 29 13 356 357 350 0 330 309 357 343 322 329 20 336 321 307 311 322 308
322 342 337 342 349 352 354 358 1 359 359 2 5 13 8 45 6 43 324 336 83 268 159 26 23 323 339 39 2 5 337 350 14 356 332 346 340 320 354 323 337 294 331 319 289 275 273
299 306 332 339 351 351 353 358 360 355 355 2 1 12 27 25 65 356 337 107 213 206 46 26 32 349 8 28 18 348 356 34 46 358 351 337 310 344 348 356 321 317 338 312 289 268 259
258 304 325 342 348 350 354 356 355 353 352 360 15 32 29 32 334 334 354 204 272 55 350 7 342 328 14 16 7 4 357 38 46 354 350 328 337 332 36 333 317 336 332 311 289 282 302
264 293 319 347 343 349 353 350 352 350 348 357 45 47 25 7 355 346 291 254 60 51 22 354 331 320 23 20 1 357 346 18 50 30 316 349 327 10 333 306 304 315 288 281 294 328 302
252 270 318 331 340 349 351 348 349 349 349 357 110 68 13 356 356 343 296 49 39 25 5 329 312 358 357 6 359 350 340 37 69 53 47 305 302 314 308 309 323 324 293 306 255 279 283
223 261 297 326 347 349 350 348 349 351 351 3 123 201 13 355 354 320 62 94 96 38 344 325 6 12 328 347 1 340 320 46 16 25 0 298 305 295 301 335 7 287 12 5 8 313 326
214 237 282 331 345 348 351 351 353 353 356 46 46 166 349 350 10 43 68 71 89 41 17 349 360 313 339 5 343 320 313 63 26 354 340 316 243 293 319 19 358 12 24 350 269 221 260
207 222 281 325 337 353 350 356 360 358 4 50 354 55 347 350 50 48 56 50 36 12 1 1 295 1 13 351 314 312 7 15 6 352 339 6 301 286 39 117 86 69 23 11 330 333 314
199 213 263 302 339 353 349 0 3 9 26 20 64 51 357 14 79 77 110 104 75 24 24 23 17 355 17 329 343 354 355 27 6 22 354 353 324 319 206 169 63 48 20 355 293 222 275
193 203 243 292 336 344 351 359 3 15 48 37 93 99 54 37 27 101 108 62 61 65 66 15 30 49 11 341 337 300 350 5 333 19 354 347 342 31 328 355 325 17 17 6 346 359 329
193 209 230 268 322 337 349 356 1 15 79 71 30 66 359 46 61 73 65 24 49 32 22 43 18 48 334 278 340 4 357 336 342 5 14 43 301 87 85 68 71 64 27 25 37 6 48
197 205 215 252 313 332 343 357 359 12 93 69 119 134 51 83 106 90 61 13 42 358 13 17 58 355 329 89 85 291 316 340 52 328 360 346 309 124 205 151 119 80 24 20 51 351 16
192 201 212 240 289 320 351 6 359 26 101 104 94 120 104 177 119 114 93 88 95 21 52 78 344 11 29 20 329 329 59 64 108 43 325 9 322 241 88 176 202 196 331 354 321 105 263
188 196 204 239 277 316 22 16 16 52 123 125 119 114 113 128 85 89 123 107 10 2 167 325 53 91 58 342 217 85 78 105 102 9 50 355 354 276 119 119 284 231 200 235 269 236 222
188 195 203 235 257 174 66 45 48 72 109 116 98 108 112 106 112 125 100 71 122 99 222 252 59 29 318 267 241 244 183 128 232 205 9 139 247 327 108 81 123 262 326 25 91 292 172
193 192 208 223 199 146 118 83 77 88 106 108 84 93 92 120 49 63 110 49 70 45 154 158 78 305 281 251 215 12 35 309 308 339 79 1 145 108 357 4 328 227 127 119 85 302 198
191 193 193 184 173 142 136 131 102 116 125 120 88 87 90 105 67 353 170 130 171 144 255 119 357 340 231 297 68 8 130 145 312 314 334 335 352 103 342 327 290 187 123 90 61 253 171
192 188 181 176 165 153 156 158 144 140 140 144 72 78 110 92 71 48 94 162 134 229 172 264 51 317 329 64 61 142 71 187 96 194 174 179 103 331 334 33 317 148 110 145 213 236 195
188 183 179 173 165 163 159 143 137 139 137 138 93 100 101 77 123 107 96 92 96 171 94 174 147 359 176 89 22 90 190 128 149 272 25 348 188 206 173 224 221 201 200 213 171 202 238